FW1786 Weather Reports


Display with metric or nautical units.
time (UTC)temp
F
wind
direction
speed
MPH
gust
MPH
rain 1hr
in
rain 24hr
in
rain mn
in
humidity
%
barometer
mb
20260508231527 75 201 1.0 4.0 0.00 0.00 0.00 46 1008.5
20260508230004 75 245 0.0 6.0 0.00 0.00 0.00 46 1008.5
20260508224512 76 205 1.0 5.0 0.00 0.00 0.00 43 1008.3
20260508223018 77 171 2.0 7.0 0.00 0.00 0.00 41 1008.4
20260508221516 77 302 1.0 6.0 0.00 0.00 0.00 41 1008.3
20260508220014 77 218 2.0 6.0 0.00 0.00 0.00 40 1008.5
20260508214510 78 331 2.0 5.0 0.00 0.00 0.00 43 1008.4
20260508213018 78 168 2.0 7.0 0.00 0.00 0.00 40 1008.5
20260508211512 78 321 2.0 7.0 0.00 0.00 0.00 39 1008.5
20260508210027 78 201 1.0 9.0 0.00 0.00 0.00 39 1008.8
20260508204520 78 165 2.0 7.0 0.00 0.00 0.00 39 1008.9
20260508203020 78 198 3.0 8.0 0.00 0.00 0.00 40 1009.3
20260508201514 77 85 1.0 3.0 0.00 0.00 0.00 43 1009.4
20260508200016 77 244 3.0 9.0 0.00 0.00 0.00 40 1009.5
20260508194525 77 244 2.0 6.0 0.00 0.00 0.00 35 1009.8
20260508193025 76 142 3.0 8.0 0.00 0.00 0.00 35 1010.1
20260508191533 76 182 2.0 7.0 0.00 0.00 0.00 37 1010.4
20260508190020 77 40 2.0 9.0 0.00 0.00 0.00 45 1010.6
20260508184522 76 333 1.0 6.0 0.00 0.00 0.00 39 1010.9
20260508183024 75 325 2.0 8.0 0.00 0.00 0.00 41 1011.1
20260508181525 75 255 2.0 6.0 0.00 0.00 0.00 41 1011.3
20260508180019 74 221 3.0 9.0 0.00 0.00 0.00 41 1011.6
20260508174519 74 274 2.0 7.0 0.00 0.00 0.00 44 1011.8
20260508173025 74 226 2.0 9.0 0.00 0.00 0.00 49 1012.2
20260508171522 72 167 2.0 9.0 0.00 0.00 0.00 46 1012.4
20260508170016 72 299 1.0 9.0 0.00 0.00 0.00 47 1012.7
20260508164516 71 215 3.0 11.0 0.00 0.00 0.00 50 1013.1
20260508163027 71 213 3.0 10.0 0.00 0.00 0.00 52 1013.2
20260508161519 70 198 2.0 10.0 0.00 0.00 0.00 56 1013.4
20260508160022 69 257 2.0 7.0 0.00 0.00 0.00 57 1013.7
20260508154520 68 139 4.0 10.0 0.00 0.00 0.00 60 1013.8
20260508153022 67 259 1.0 7.0 0.00 0.00 0.00 64 1013.9
20260508151519 66 229 2.0 5.0 0.00 0.00 0.00 65 1014.2
20260508150046 65 110 2.0 8.0 0.00 0.00 0.00 66 1014.1
20260508144523 63 171 3.0 10.0 0.00 0.00 0.00 68 1014.1
20260508143019 62 259 5.0 10.0 0.00 0.00 0.00 69 1014.0
20260508141529 60 227 2.0 7.0 0.00 0.00 0.00 76 1014.2
20260508140005 58 203 3.0 8.0 0.00 0.00 0.00 78 1014.4
20260508134506 56 167 2.0 5.0 0.00 0.00 0.00 80 1014.5
20260508133009 55 203 2.0 6.0 0.00 0.00 0.00 81 1014.9
20260508131508 51 161 0.0 4.0 0.00 0.00 0.00 89 1014.9
20260508130006 49 144 0.0 0.0 0.00 0.00 0.00 91 1014.9
20260508124506 47 196 0.0 0.0 0.00 0.00 0.00 94 1014.9
20260508123010 45 234 0.0 0.0 0.00 0.00 0.00 95 1014.9
20260508121510 44 234 0.0 1.0 0.00 0.00 0.00 94 1014.9
20260508120011 44 218 0.0 0.0 0.00 0.00 0.00 94 1014.7
20260508114508 44 263 0.0 0.0 0.00 0.00 0.00 94 1014.5
20260508113016 43 290 0.0 0.0 0.00 0.00 0.00 94 1014.4
20260508111511 43 292 0.0 0.0 0.00 0.00 0.00 94 1014.1
20260508110017 43 292 0.0 0.0 0.00 0.00 0.00 94 1013.9
20260508104520 43 277 0.0 0.0 0.00 0.00 0.00 94 1014.0
20260508103014 43 277 0.0 0.0 0.00 0.00 0.00 94 1013.9
20260508101518 43 277 0.0 0.0 0.00 0.00 0.00 94 1013.8
20260508100024 43 281 0.0 0.0 0.00 0.00 0.00 94 1013.9
20260508094519 43 281 0.0 0.0 0.00 0.00 0.00 94 1013.8
20260508093022 43 224 0.0 0.0 0.00 0.00 0.00 93 1013.8
20260508091518 43 229 0.0 0.0 0.00 0.00 0.00 93 1013.8
20260508090024 43 227 0.0 0.0 0.00 0.00 0.00 93 1013.9
20260508084524 43 227 0.0 0.0 0.00 0.00 0.00 93 1013.9
20260508083020 43 227 0.0 0.0 0.00 0.00 0.00 93 1014.0
20260508081516 43 227 0.0 0.0 0.00 0.00 0.00 93 1014.2
20260508080030 43 227 0.0 0.0 0.00 0.00 0.00 93 1014.4
20260508074522 44 228 0.0 1.0 0.00 0.00 0.00 93 1014.5
20260508073026 44 226 0.0 1.0 0.00 0.00 0.00 93 1014.5
20260508071526 44 226 0.0 1.0 0.00 0.00 0.00 92 1014.7
20260508070022 44 240 0.0 1.0 0.00 0.00 0.00 92 1014.9
20260508064535 44 240 0.0 0.0 0.00 0.00 0.00 92 1015.1
20260508063027 44 240 0.0 1.0 0.00 0.00 0.00 91 1015.4
20260508061532 45 234 0.0 1.0 0.00 0.00 0.00 91 1015.5
20260508060027 45 235 0.0 1.0 0.00 0.00 0.00 91 1015.6
20260508054532 45 235 0.0 1.0 0.00 0.00 0.00 90 1015.6
20260508053024 46 205 0.0 1.0 0.00 0.00 0.00 90 1015.8
20260508051518 46 184 0.0 2.0 0.00 0.00 0.00 89 1015.6
20260508050020 47 192 0.0 2.0 0.00 0.00 0.00 89 1015.7
20260508044521 47 240 0.0 2.0 0.00 0.00 0.00 88 1015.8
20260508043024 48 182 0.0 1.0 0.00 0.00 0.00 87 1016.0
20260508041523 49 188 0.0 3.0 0.00 0.00 0.00 86 1015.8
20260508040040 49 180 1.0 3.0 0.00 0.00 0.00 85 1015.9
20260508034536 49 186 1.0 2.0 0.00 0.00 0.00 86 1016.0
20260508033022 50 188 0.0 1.0 0.00 0.00 0.00 86 1015.8
20260508031523 50 188 0.0 3.0 0.00 0.00 0.00 83 1015.7
20260508030026 52 190 1.0 3.0 0.00 0.00 0.00 81 1015.6
20260508024528 52 185 0.0 3.0 0.00 0.00 0.00 80 1015.4
20260508023024 53 188 1.0 2.0 0.00 0.00 0.00 79 1015.4
20260508021520 53 189 0.0 2.0 0.00 0.00 0.00 78 1015.4
20260508020008 54 184 1.0 2.0 0.00 0.00 0.00 78 1015.1
20260508014508 54 293 0.0 0.0 0.00 0.00 0.00 77 1014.7
20260508013011 55 293 0.0 1.0 0.00 0.00 0.00 75 1014.5
20260508011509 57 293 0.0 0.0 0.00 0.00 0.00 73 1014.4
20260508010013 59 294 0.0 1.0 0.00 0.00 0.00 68 1014.4
20260508004508 61 294 0.0 0.0 0.00 0.00 0.00 61 1014.5
20260508003012 63 294 0.0 1.0 0.00 0.00 0.00 59 1014.5
20260508001514 65 293 0.0 4.0 0.00 0.00 0.00 51 1014.5
20260508000017 65 352 0.0 3.0 0.00 0.00 0.00 50 1014.5
20260507234528 66 338 0.0 4.0 0.00 0.00 0.00 51 1014.5
20260507233017 67 129 1.0 5.0 0.00 0.00 0.00 42 1014.6